TimeEST,TemperatureF,Dew PointF,Humidity,Sea Level PressureIn,VisibilityMPH,Wind Direction,Wind SpeedMPH,Gust SpeedMPH,PrecipitationIn,Events,Conditions,WindDirDegrees,DateUTC
12:19 AM,26.6,24.8,93,29.41,0.8,WNW,15.0,24.2,0.00,Snow,Light Snow,290,2013-01-31 05:19:00
12:30 AM,26.6,23.0,86,29.42,1.0,WNW,20.7,29.9,0.00,Snow,Light Snow,300,2013-01-31 05:30:00
12:38 AM,26.6,21.2,80,29.42,1.2,WNW,23.0,29.9,0.00,Snow,Light Snow,290,2013-01-31 05:38:00
12:45 AM,26.6,21.2,80,29.43,0.8,WNW,15.0,29.9,0.00,Snow,Light Snow,290,2013-01-31 05:45:00
12:53 AM,26.1,23.0,88,29.46,0.5,WNW,10.4,-,0.00,Fog-Snow,Snow,290,2013-01-31 05:53:00
1:15 AM,26.6,21.2,80,29.45,1.8,WNW,19.6,29.9,0.00,Snow,Light Snow,300,2013-01-31 06:15:00
1:32 AM,24.8,21.2,86,29.45,0.5,WNW,15.0,24.2,0.00,Fog-Snow,Snow,290,2013-01-31 06:32:00
1:45 AM,24.8,21.2,86,29.46,0.2,WNW,11.5,20.7,0.01,Fog-Snow,Heavy Snow,290,2013-01-31 06:45:00
1:53 AM,24.1,21.0,88,29.49,0.2,WNW,21.9,27.6,0.01,Fog-Snow,Heavy Snow,300,2013-01-31 06:53:00
2:31 AM,24.8,19.4,80,29.48,0.5,WNW,18.4,28.8,0.01,Fog-Snow,Snow,290,2013-01-31 07:31:00
2:42 AM,24.8,19.4,80,29.49,1.0,WNW,16.1,25.3,0.01,Snow,Light Snow,290,2013-01-31 07:42:00
2:51 AM,24.8,19.4,80,29.50,0.8,West,20.7,26.5,0.01,Snow,Light Snow,280,2013-01-31 07:51:00
2:53 AM,24.1,19.9,84,29.52,1.0,West,18.4,26.5,0.01,Snow,Light Snow,280,2013-01-31 07:53:00
3:00 AM,24.8,19.4,80,29.50,2.0,West,17.3,23.0,0.00,Snow,Light Snow,270,2013-01-31 08:00:00
3:38 AM,23.0,17.6,80,29.52,1.2,West,18.4,29.9,0.00,Snow,Light Snow,260,2013-01-31 08:38:00
3:49 AM,21.2,19.4,93,29.52,0.5,West,16.1,28.8,0.00,Fog-Snow,Snow,270,2013-01-31 08:49:00
3:53 AM,21.9,19.0,89,29.55,0.8,West,20.7,26.5,0.00,Snow,Light Snow,280,2013-01-31 08:53:00
4:12 AM,21.2,17.6,86,29.53,1.0,West,20.7,29.9,0.00,Snow,Light Snow,280,2013-01-31 09:12:00
4:22 AM,21.2,17.6,86,29.53,2.0,West,18.4,26.5,0.00,Snow,Light Snow,280,2013-01-31 09:22:00
4:53 AM,21.0,16.0,81,29.57,2.0,West,18.4,27.6,0.00,Snow,Light Snow,280,2013-01-31 09:53:00
5:01 AM,21.2,15.8,80,29.55,3.0,West,17.3,23.0,0.00,Snow,Light Snow,280,2013-01-31 10:01:00
5:10 AM,21.2,15.8,80,29.56,1.5,West,16.1,-,0.00,Snow,Light Snow,270,2013-01-31 10:10:00
5:18 AM,21.2,17.6,86,29.56,0.8,West,15.0,-,0.00,Snow,Light Snow,270,2013-01-31 10:18:00
5:28 AM,21.2,17.6,86,29.57,1.2,West,13.8,27.6,0.00,Snow,Light Snow,270,2013-01-31 10:28:00
5:41 AM,21.2,17.6,86,29.57,3.0,West,16.1,24.2,0.00,Snow,Light Snow,270,2013-01-31 10:41:00
5:53 AM,21.0,16.0,81,29.60,3.0,West,12.7,21.9,0.00,Snow,Light Snow,270,2013-01-31 10:53:00
6:12 AM,21.2,15.8,80,29.59,2.5,West,17.3,25.3,0.00,Snow,Light Snow,260,2013-01-31 11:12:00
6:14 AM,21.2,15.8,80,29.59,0.5,West,20.7,28.8,0.00,Snow,Snow,270,2013-01-31 11:14:00
6:35 AM,19.4,17.6,93,29.59,1.5,West,10.4,-,0.00,Snow,Light Snow,270,2013-01-31 11:35:00
6:53 AM,19.9,16.0,85,29.63,1.5,West,17.3,25.3,0.00,Snow,Light Snow,280,2013-01-31 11:53:00
6:59 AM,19.4,15.8,86,29.60,0.8,West,13.8,27.6,0.00,Snow,Light Snow,270,2013-01-31 11:59:00
7:07 AM,19.4,17.6,93,29.61,0.8,West,12.7,-,0.00,Snow,Light Snow,270,2013-01-31 12:07:00
7:14 AM,19.4,15.8,86,29.61,1.8,West,12.7,20.7,0.00,Snow,Light Snow,280,2013-01-31 12:14:00
7:18 AM,19.4,15.8,86,29.61,3.0,West,16.1,23.0,0.00,Snow,Light Snow,270,2013-01-31 12:18:00
7:23 AM,19.4,15.8,86,29.62,1.5,West,16.1,25.3,0.00,Snow,Light Snow,270,2013-01-31 12:23:00
7:36 AM,19.4,15.8,86,29.62,1.5,West,15.0,24.2,0.00,Snow,Light Snow,280,2013-01-31 12:36:00
7:53 AM,19.0,16.0,88,29.66,1.0,West,13.8,19.6,0.00,Snow,Light Snow,270,2013-01-31 12:53:00
8:27 AM,19.4,15.8,86,29.64,0.5,West,12.7,23.0,0.00,Fog-Snow,Snow,280,2013-01-31 13:27:00
8:49 AM,19.4,14.0,80,29.65,1.0,West,16.1,27.6,N/A,Snow,Light Snow,270,2013-01-31 13:49:00
8:53 AM,19.0,14.0,81,29.70,1.2,West,16.1,27.6,0.00,Snow,Light Snow,270,2013-01-31 13:53:00
9:53 AM,18.0,14.0,84,29.73,1.2,West,13.8,-,0.00,Snow,Light Snow,260,2013-01-31 14:53:00
10:53 AM,19.0,14.0,81,29.76,0.8,West,18.4,-,0.00,Snow,Light Snow,280,2013-01-31 15:53:00
11:36 AM,19.4,15.8,86,29.73,0.2,West,13.8,24.2,0.00,Snow,Heavy Snow,270,2013-01-31 16:36:00
11:48 AM,19.4,14.0,80,29.73,0.5,West,18.4,29.9,0.00,Snow,Snow,270,2013-01-31 16:48:00
11:53 AM,19.0,12.9,77,29.77,0.5,West,21.9,29.9,0.00,Snow,Light Snow,280,2013-01-31 16:53:00
12:04 PM,19.4,12.2,74,29.73,1.5,West,17.3,31.1,0.00,Snow,Light Snow,260,2013-01-31 17:04:00
12:15 PM,19.4,12.2,74,29.73,1.8,West,18.4,-,0.00,Snow,Light Snow,280,2013-01-31 17:15:00
12:37 PM,19.4,10.4,68,29.74,1.8,West,23.0,29.9,0.00,Snow,Light Snow,270,2013-01-31 17:37:00
12:45 PM,19.4,12.2,74,29.74,1.0,West,17.3,28.8,0.00,Snow,Light Snow,270,2013-01-31 17:45:00
12:53 PM,19.9,12.9,74,29.78,1.0,West,21.9,27.6,0.00,Snow,Light Snow,270,2013-01-31 17:53:00
1:47 PM,19.4,14.0,80,29.75,0.5,West,10.4,-,0.00,Snow,Snow,270,2013-01-31 18:47:00
1:53 PM,19.0,14.0,81,29.79,0.5,West,12.7,-,0.00,Snow,Snow,260,2013-01-31 18:53:00
2:53 PM,19.0,14.0,81,29.81,1.0,West,13.8,-,0.00,Snow,Light Snow,260,2013-01-31 19:53:00
3:28 PM,17.6,12.2,79,29.78,1.0,West,15.0,19.6,0.00,Snow,Light Snow,280,2013-01-31 20:28:00
3:51 PM,17.6,12.2,79,29.79,1.0,West,18.4,25.3,0.00,Snow,Light Snow,270,2013-01-31 20:51:00
3:53 PM,18.0,12.0,78,29.83,1.0,West,16.1,25.3,0.00,Snow,Light Snow,280,2013-01-31 20:53:00
4:19 PM,17.6,10.4,73,29.79,2.0,West,11.5,21.9,0.00,Snow,Light Snow,280,2013-01-31 21:19:00
4:26 PM,17.6,10.4,73,29.79,1.0,West,12.7,20.7,0.00,Snow,Light Snow,280,2013-01-31 21:26:00
4:53 PM,17.1,12.9,84,29.84,1.0,West,9.2,-,0.00,Snow,Light Snow,270,2013-01-31 21:53:00
5:53 PM,17.1,12.0,81,29.86,0.5,West,16.1,-,0.00,Snow,Snow,260,2013-01-31 22:53:00
6:33 PM,15.8,12.2,86,29.83,0.8,WSW,11.5,-,0.00,Snow,Light Snow,250,2013-01-31 23:33:00
6:53 PM,16.0,12.9,88,29.89,0.8,WSW,10.4,-,0.00,Snow,Light Snow,250,2013-01-31 23:53:00
7:53 PM,16.0,12.0,84,29.91,0.8,WNW,10.4,-,0.00,Snow,Light Snow,290,2013-02-01 00:53:00
8:53 PM,16.0,12.0,84,29.93,1.0,West,12.7,-,0.00,Snow,Light Snow,270,2013-02-01 01:53:00
9:26 PM,15.8,12.2,86,29.89,0.8,West,11.5,-,0.00,Snow,Light Snow,260,2013-02-01 02:26:00
9:46 PM,15.8,12.2,86,29.90,1.0,West,13.8,19.6,0.00,Snow,Light Snow,270,2013-02-01 02:46:00
9:53 PM,15.8,12.2,86,29.90,0.8,West,10.4,19.6,N/A,Snow,Light Snow,270,2013-02-01 02:53:00
10:53 PM,15.8,10.4,79,29.92,0.8,West,10.4,-,N/A,Snow,Light Snow,260,2013-02-01 03:53:00
11:01 PM,15.8,10.4,79,29.92,1.0,West,10.4,-,0.00,Snow,Light Snow,260,2013-02-01 04:01:00
11:15 PM,15.8,10.4,79,29.92,2.0,West,10.4,-,0.00,Snow,Light Snow,280,2013-02-01 04:15:00
11:34 PM,15.8,10.4,79,29.93,1.5,West,11.5,-,0.00,Snow,Light Snow,270,2013-02-01 04:34:00
11:48 PM,15.8,10.4,79,29.93,0.8,West,12.7,-,0.00,Snow,Light Snow,260,2013-02-01 04:48:00
11:53 PM,15.1,10.9,84,29.98,0.8,West,13.8,-,0.00,Snow,Light Snow,270,2013-02-01 04:53:00